Ulan Bator, Mongolia

12:40 PM +08 on August 17, 2017 (GMT +0800)
Zaisan Toiruu | | Change Station

Elev 4350 ft 47.88 °N, 106.92 °E | Updated 7 minutes ago

Rain
Rain
89.2 °F
Feels Like 88 °F
N
1.9
Wind Variable Wind from East
Gusts 5.0 mph

Today
High -- | Low -- °F
--% Chance of Precip.
Yesterday
High -- | Low -- °F
Precip. -- in
Pressure 30.01 in
Visibility 6.2 miles
Clouds Few 2000 ft
Few 3000 ft
Mostly Cloudy 3300 ft
Heat Index 88 °F
Dew Point 58 °F
Humidity 34%
Rainfall 0.00 in
Snow Depth Not available.
5:49 AM 8:02 PM
Waning Crescent, 26% visible
METAR ZMUB 170430Z VRB01MPS 9999 -RA FEW020 FEW030CB BKN033 19/13 Q1016 R14140095 NOSIG RMK QFE654.8 70 ESE CM
Pressure 30.01 in
Visibility 6.2 miles
Clouds Few 2000 ft
Few 3000 ft
Mostly Cloudy 3300 ft
Heat Index 88 °F
Dew Point 58 °F
Humidity 34%
Rainfall 0.00 in
Snow Depth Not available.
5:49 AM 8:02 PM
Waning Crescent, 26% visible
METAR ZMUB 170430Z VRB01MPS 9999 -RA FEW020 FEW030CB BKN033 19/13 Q1016 R14140095 NOSIG RMK QFE654.8 70 ESE CM

Get Severe Weather Alerts

Thanks for signing up!

Be on the lookout for a verification email in your inbox.

You'll start receiving the daily forecast at 6 AM.

×

10-Day Weather Forecast

No radar image for this location.
×

Almanac

Astronomy

Aug. 17, 2017 Rise Set
Actual Time
Civil Twilight
Nautical Twilight
Astronomical Twilight
Moon
Length of Visible Light
Length of Day
Tomorrow will be .
, % of the Moon is Illuminated

Today's Extremes

Country Highs Country Lows

Community

WunderPhotos

Category 6

Welcome to Category 6. This is the collective home for Weather Underground's featured writeups by Dr. Jeff Masters (right), Bob Henson (left), Chris Burt, and other regular contributors.

Nearby

Air Quality

  Air Quality AQ Index Pollutant
Not available.

Snow Depth

Station Depth Elevation

Earthquake Activity

City Distance Mag. Time & Date
Minimum magnitude displayed is 2.5.

Coastal Water Temperatures

Place Temperature

Stations

Nearby Weather Stations

Station Location Temp. Windchill Dew Point Humidity Wind Precip. Elev Updated Type